Regional Weather Roundup
Issued by NWS Wakefield, VA

Home | Current Version | Previous Version | Text Only | Print | Product List | Glossary Off
Versions: 1 2 3 4 5 6 7 8 9 10 11 12 13 14 15 16 17 18 19 20 21 22 23 24 25 26 27 28 29 30 31 32 33 34 35 36 37 38 39 40 41 42 43 44 45 46 47 48 49 50

000
ASUS41 KAKQ 011714
RWRAKQ

REGIONAL WEATHER ROUNDUP
NATIONAL WEATHER SERVICE WAKEFIELD VA
100 PM EDT TUE SEP 01 2015

Note: "fair" indicates few or no clouds below 12,000 feet with no
significant weather and/or obstructions to visibility. * = Denotes
station may not report precipitation (e.g., rain,snow,etc.),
thunder or fog.

VAZ042-051-052>054-056-011800-
NORTHERN VIRGINIA

CITY           SKY/WX    TMP DP  RH WIND       PRES   REMARKS
WASH NATIONAL  PTSUNNY   90  67  46 CALM      30.06F
DULLES         MOSUNNY   92  67  43 NW6       30.07F HX  95
FORT BELVOIR   MOSUNNY   89  67  47 VRB2      30.05F
QUANTICO       MOSUNNY   85  73  67 S6        30.07F
FREDERICKSBRG* SUNNY     91  69  47 NE7       30.06F HX  96
STAFFORD*      MOSUNNY   90  66  45 CALM      30.11F
WARRENTON      MOSUNNY   91  70  50 N10       30.08F HX  97
CULPEPER*      MOSUNNY   87  69  55 N5        30.09F
MANASSAS*      SUNNY     90  66  45 CALM      30.07F
LEESBURG*      MOSUNNY   88  72  58 NW7       30.09F
WINCHESTER     MOSUNNY   88  63  42 CALM      30.10F
FRONT ROYAL*   FAIR      88  68  51 E6        30.09F
LURAY*         PTSUNNY   88  63  42 CALM      30.11F
$$

VAZ048-049-060>072-079>083-011800-
CENTRAL AND SOUTH CENTRAL VIRGINIA

CITY           SKY/WX    TMP DP  RH WIND       PRES   REMARKS
RICHMOND       PTSUNNY   89  68  49 NE5       30.07F
CHESTERFIELD*  FAIR      88  63  42 S6        30.09F
PETERSBURG*    MOSUNNY   88  74  62 SE5       30.08F HX  96
HANOVER        SUNNY     86  69  56 CALM      30.09F
TAPPAHANNOCK*  SUNNY     89  64  43 CALM      30.08F
QUINTON*       FAIR      85  71  60 CALM      30.07F
CHARLOTTSVILLE PTSUNNY   89  68  49 VRB3      30.10F
GORDONSVILLE*  FAIR      90  67  45 E3        30.08F
ORANGE*        PTSUNNY   90  64  43 N5        30.10F
LOUISA*        MOSUNNY   88  66  48 CALM      30.08F
BUMPASS*       FAIR      87  69  54 CALM      30.09F
FARMVILLE*     SUNNY     92  63  38 E6        30.08F
CREWE*         FAIR     N/A N/A N/A E5        30.09F
FORT PICKETT*  FAIR      88  68  51 SE3       30.09F
CHASE CITY*    FAIR      90  69  48 NW5       30.09F
CLARKSVILLE*   FAIR      86  68  54 CALM      30.09F
SOUTH HILL*    MOSUNNY   84  70  61 CALM      30.15F
LAWRENCEVILLE* FAIR      84  72  65 CALM      30.09F
EMPORIA*       MOSUNNY   82  72  69 CALM      30.10F
$$

VAZ088>098-011800-
SOUTHEAST VIRGINIA

CITY           SKY/WX    TMP DP  RH WIND       PRES   REMARKS
NORFOLK        MOSUNNY   83  70  64 NE7       30.07F
VIRGINIA BEACH PTSUNNY   88  71  57 E5        30.07F
NORFOLK NAVAL  PTSUNNY   85  70  60 NW7       30.09F
WEST POINT*    SUNNY     88  67  49 S7        30.08F
SALUDA*        FAIR      84  70  63 SE6       30.07F
NEWPORT NEWS   MOSUNNY   86  69  56 E8        30.07F
LANGLEY AFB    MOSUNNY   84  69  61 E6        30.06F
FORT EUSTIS    MOSUNNY   83  68  60 SW6       30.06F
WILLIAMSBURG*  MOSUNNY   90  73  58 CALM      30.08F HX  98
HR EXEC AP*      N/A     82  72  69 CALM      30.10F
FRANKLIN*      PTSUNNY   80  70  71 CALM      30.08F
WAKEFIELD      MOSUNNY   85  70  60 CALM      30.08F
$$

VAZ020-022-025-037-045-011800-
WEST CENTRAL AND SOUTHWEST VIRGINIA

CITY           SKY/WX    TMP DP  RH WIND       PRES   REMARKS
STAUNTON*      SUNNY     91  64  40 CALM      30.15F
WAYNESBORO*    FAIR      87  64  45 E3        30.15S
HOT SPRINGS VA CLOUDY    73  63  72 CALM      30.27F
LYNCHBURG      MOSUNNY   86  64  47 N5        30.13F
DANVILLE       MOSUNNY   90  65  43 CALM      30.10F
SOUTH BOSTON*  FAIR      89  63  41 E6        30.09F
MARTINSVILLE   SUNNY     91  63  40 NE5       30.14F
ROANOKE        MOSUNNY   88  64  44 NE8       30.15F
BLACKSBURG     CLOUDY    82  68  63 NW6       30.22F
DUBLIN*        CLOUDY    82  65  57 CALM      30.20F
MARION*        CLOUDY    81  62  53 CALM      30.24F
HILLSVILLE*    MOSUNNY   79  64  59 CALM      30.22F
RICHLANDS*     CLOUDY    76  31  19 NW5       30.24F
WISE*          SUNNY     81  61  50 NE5       30.24F
ABINGDON*      MOSUNNY   82  61  49 CALM      30.20F
$$

MDZ021>025-VAZ099-100-011800-
SOUTHERN MARYLAND AND THE DELMARVA PENINSULA

CITY           SKY/WX    TMP DP  RH WIND       PRES   REMARKS
PATUXENT RIVER PTSUNNY   85  71  63 E7        30.06F
BAY BRIDGE APT   N/A     82  70  65 W6        30.06F
LEONARDTOWN    NOT AVBL
DOVER          SUNNY     88  74  63 VRB1      30.04F HX  97
GEORGETOWN     PTSUNNY   89  68  49 CALM      30.05F
EASTON         MOSUNNY   90  72  55 E7        30.09F HX  96
CAMBRIDGE      SUNNY     91  73  55 NE5       30.05F HX 100
SALISBURY      SUNNY     88  68  51 S7        30.05F
OCEAN CITY     SUNNY     84  73  69 S7        30.06F
WALLOPS ISLAND SUNNY     86  73  65 S9        30.07F
ACCOMACK*      MOSUNNY   82  77  83 NW7       30.06F
$$

NCZ012>017-030>032-011800-
NORTH CENTRAL AND EASTERN NORTH CAROLINA

CITY           SKY/WX    TMP DP  RH WIND       PRES   REMARKS
ROANOKE RAPIDS FAIR      81  70  69 CALM      30.09F
RALEIGH        MOSUNNY   87  67  51 CALM      30.09F
ELIZABETH CITY PTSUNNY   81  72  74 N5        30.08F
AHOSKIE*       MOSUNNY   78  69  73 N3        30.09F
EDENTON*       CLOUDY    76  70  80 W5        30.09F
CURRITUCK*     PTSUNNY   82  70  68 NE7       30.08F
KILL DEVIL HLS MOSUNNY   85  72  65 NE5       30.06F
MANTEO         MOSUNNY   81  73  75 NE8       30.07F
CAPE HATTERAS  SUNNY     83  75  77 VRB5      30.06F
TARBORO*       PTSUNNY   85  71  63 N3        30.10F
GOLDSBORO      PTSUNNY   84  72  67 N3        30.08F
WASHINGTON     MOSUNNY   78  71  78 CALM      30.09F
GREENVILLE     CLOUDY    81  72  74 E3        30.11F
NEW BERN       PTSUNNY   83  72  69 NW6       30.10F
WILMINGTON     MOSUNNY   84  71  65 NW6       30.09F
$$

VAZ048-011800-
ELSEWHERE

CITY           SKY/WX    TMP DP  RH WIND       PRES   REMARKS
HARRISBURG PA  SUNNY     88  59  37 NW10      30.05F
BALTIMORE      MOSUNNY   91  66  43 VRB5      30.05F
ANNAPOLIS      SUNNY     86  69  56 NE7       30.06F
ANDREWS AFB    MOSUNNY   91  68  47 VRB5      30.06F
PHILADELPHIA   MOSUNNY   89  64  43 S7        30.04F
HENDERSON NC   MOSUNNY   86  64  47 CALM      30.10F
GREENSBORO     MOSUNNY   87  62  43 CALM      30.11F
ROCKY MOUNT    SUNNY     85  70  60 VRB5      30.09F
$$

VAZ100-011800-
MARINE

STATION/POSITION TIME  TEMP    WIND        PRES    WAVE   SWELL
                       AIR SEA DIR/SP/G            HT/PER HT/PER
                 (UTC) (F)     (DEG/KT/KT) (MB)    (FT/S) (FT/S)
BRANDYWINE LGT   1600   76 76  290/  4/  4 1018.4S
CAPE MAY NJ      1600   80 80  290/  5/  7 1017.8F
LEWES DE         1600   77 76   10/  5/  6 1018.0S
15NM E FENWICK I 1650   77 80  220/  4/  6 1018.1F   2/ 8   2/ 8
OCEAN-CITY-INLET 1600   80 77  180/  6/  9 1017.4F
GOOSES REEF MD   1700   80 81   CALM  /  2 1019.1F
COVE POINT MD    1600   78      50/  2/  3 1019.0F
SOLOMONS ISLAND  1600      80                N/A
BISHOPS HEAD MD  1600   76 79  250/  5/  6 1017.6F
PINEY POINT MD   1605          300/  2/  3   N/A
POTOMAC MD       1700   78 81   CALM  /  2 1017.2F   0
CAMBRIDGE MD     1600   80 80  340/  5/  6 1017.3F
LEWISETTA VA     1600   77 80   60/  3/  5 1018.2F
RAPPAHANNOCK LGT 1600          240/  4/  5 1019.4F
STINGRAY PT      1700   78 81  130/  2/  4 1018.8F   0
YORK RVR RNG VA  1600   76     130/  2/  3 1018.5F
YORKTOWN VA      1600   77 80   80/  4/  4 1018.6F
JAMESTOWN VA     1700   79 82  160/  2/  4   N/A
DOMINION TERM VA 1600   76     190/  5/  6 1018.9F
KIPTOPEKE VA     1600      79  270/  4/  5   N/A
CHES BAY BRIDGE  1600   76 79  350/  3/  4 1018.5F
CAPE HENRY VA    1600   77      10/  3/  4   N/A
CHESAPEAKE LGHT  1600   76      20/  4/  5 1019.6F
WILLOUBY STN VA  1600   77     100/  2/  2 1019.9F
CAPE HENRY BUOY  1628      80                N/A     2/10
1ST LANDING BUOY 1700      80              1018.1F   1
CAPE CHARLES BUO 1626      79                N/A     2/ 8   2/ 8
OFFSHORE WE BUOY 1611      79                N/A     2/ 8   2/ 8
64NM E OF VA BCH 1650   78 78   30/  6/  6 1017.9F   3/ 8   2/ 8
DUCK PIER NC     1600   77 78   10/  5/  6 1018.0F
44100 DUCK FRF   1624      79                N/A     2/11
44056 DUCK FRF   1611      79                N/A     2/10
OREGON INLET NC  1600   79 79   30/  8/ 10 1018.4F
HATTERAS NC      1600   79 80  340/  6/  7 1018.5F
DIAMOND SHLS NC  1650   79 84  340/  8/ 10 1018.1F   3/ 6   3/ 6
CAPE LOOKOUT NC  1700   81     260/  7/  9 1018.2F
$$



USA.gov is the U.S. government's official web portal to all federal, state and local government web resources and services.